Regional Weather Roundup
Issued by NWS

Home | Current Version | Previous Version | Graphics & Text | Print | Product List | Glossary On
Versions: 1 2 3 4 5 6 7 8 9 10 11 12 13 14 15 16 17 18 19 20 21 22 23 24 25 26 27 28 29 30 31 32 33 34 35 36 37 38 39 40 41 42 43 44 45 46 47 48 49 50
000
ASUS43 KOAX 012210
RWRNE

WEATHER ROUNDUP FOR NEBRASKA
NATIONAL WEATHER SERVICE OMAHA NE
400 PM CST THU DEC 01 2016

NOTES: SATELLITE DATA IS BEING USED TO AUGMENT CLOUD COVER ABOVE
       12000 FEET.
       "FAIR" INDICATES FEW OR NO CLOUDS BELOW 12,000 FEET WITH NO
       SIGNIFICANT WEATHER AND/OR OBSTRUCTIONS TO VISIBILITY.

  * THESE STATIONS DO NOT REPORT WEATHER SUCH AS RAIN...SNOW OR FOG.

NEZ001>004-019>022-054>056-012300-
NEBRASKA PANHANDLE

CITY           SKY/WX    TMP DP  RH WIND       PRES   REMARKS
SCOTTSBLUFF    SUNNY     41  11  29 W6        29.93R
ALLIANCE       MOSUNNY   38  13  35 NW6       29.91R WCI  33
CHADRON        CLOUDY    41  18  39 NW15      29.93R
KIMBALL        SUNNY     38  18  44 NW8       29.92R WCI  32
SIDNEY         SUNNY     40  12  32 NW12      29.92S WCI  33
$$

NEZ057>060-069>072-079>082-012300-
SOUTHWEST NEBRASKA

CITY           SKY/WX    TMP DP  RH WIND       PRES   REMARKS
NORTH PLATTE   SUNNY     44  16  32 SW3       29.94S
IMPERIAL       SUNNY     45  11  25 W10       29.93S
LEXINGTON      SUNNY     43  15  32 W5        29.95S
MCCOOK         SUNNY     46  17  31 CALM      29.96S
OGALLALA       SUNNY     45  15  30 NW9       29.93R
$$

NEZ005>010-023>029-035>040-094-012300-
NORTH CENTRAL NEBRASKA

CITY           SKY/WX    TMP DP  RH WIND       PRES   REMARKS
VALENTINE      CLOUDY    33  22  63 N6        29.96R WCI  28
AINSWORTH      CLOUDY    33  24  69 N8        29.96R WCI  26
BROKEN BOW     CLOUDY    43  20  39 NE7       29.94R
O`NEILL        CLOUDY    32  26  77 NW7       29.99R WCI  26
ORD            PTCLDY    38  21  50 NW7       29.96R WCI  33
THEDFORD       CLOUDY    44  18  35 N5        29.93S
$$

NEZ041-046>049-061>064-073>077-083>087-012300-
SOUTH CENTRAL NEBRASKA

CITY           SKY/WX    TMP DP  RH WIND       PRES   REMARKS
GRAND ISLAND   CLOUDY    40  24  53 NW3       29.98R
AURORA         MOCLDY    40  24  53 NW3       29.99R
HASTINGS       CLEAR     42  22  44 NW6       29.99S
HEBRON         PTCLDY    45  22  40 NW7       30.00S
HOLDREGE       SUNNY     42  20  41 SW8       29.96S
KEARNEY *      CLEAR     43  19  39 CALM      29.96S
YORK           MOCLDY    37  25  60 W3        30.00R
$$

NEZ011>018-030>034-042>045-012300-
NORTHEAST NEBRASKA

CITY           SKY/WX    TMP DP  RH WIND       PRES   REMARKS
NORFOLK        CLOUDY    34  24  67 NW8       29.98S WCI  27
ALBION         CLOUDY    35  23  62 N5        29.99R WCI  31
BLAIR          CLOUDY    37  28  70 W3        29.99R
FREMONT        CLOUDY    37  28  69 W3        30.01R
TEKAMAH        CLOUDY    37  27  67 NW7       30.01R WCI  32
WAYNE          CLOUDY    34  28  78 NW7       30.00R WCI  28
$$

NEZ050>053-065>068-078-088>093-012300-
SOUTHEAST NEBRASKA

CITY           SKY/WX    TMP DP  RH WIND       PRES   REMARKS
LINCOLN        CLEAR     42  25  50 NW7       30.02R
OMAHA EPPLEY   CLOUDY    37  26  64 NW7       30.01R WCI  32
BEATRICE       CLEAR     41  26  53 W8        30.00S
FALLS CITY     CLEAR     40  27  59 W6        30.01R
NEBRASKA CITY  PTCLDY    40  23  49 W5        30.01R
PLATTSMOUTH    CLEAR     37  24  59 NW3       30.01R
$$

NEZ044-045-051>053-067-012300-
OMAHA AREA

CITY           SKY/WX    TMP DP  RH WIND       PRES   REMARKS
OMAHA EPPLEY   CLOUDY    37  26  64 NW7       30.01R WCI  32
BLAIR          CLOUDY    37  28  70 W3        29.99R
FREMONT        CLOUDY    37  28  69 W3        30.01R
MILLARD        CLOUDY    38  28  65 W3        30.01S
OFFUTT AFB     CLOUDY    38  28  66 NW5       30.01R WCI  35
PLATTSMOUTH    CLEAR     37  24  59 NW3       30.01R
WAHOO          CLOUDY    38  26  61 NW5       30.00S WCI  35
$$




USA.gov is the U.S. government's official web portal to all federal, state and local government web resources and services.